Vorticity
nan nan nan nan nan nan nan nan nan nan nan nan nan nan nan nan nan nan nan nan nan nan nan nan nan nan nan nan nan nan nan nan nan nan nan nan nan nan nan nan nan nan nan
nan 11 10 9 9 9 10 9 8 8 8 8 8 8 8 7 8 6 6 10 12 10 9 7 7 8 9 9 8 8 8 8 8 7 7 7 7 7 7 7 7 7 nan
nan 11 10 9 9 10 11 12 11 10 10 8 9 9 10 10 9 8 7 7 10 13 11 9 9 8 8 8 8 8 7 7 7 7 7 7 7 7 7 7 7 7 nan
nan 11 9 8 9 10 10 9 11 11 11 10 10 9 9 8 8 9 7 6 7 9 14 12 9 9 9 8 8 7 7 7 8 7 7 7 7 7 7 7 7 7 nan
nan 10 8 8 10 9 9 10 8 10 11 10 9 10 9 8 8 9 9 9 9 8 6 11 14 11 11 10 8 7 7 8 8 9 8 7 7 7 7 8 8 7 nan
nan 11 8 9 10 9 8 9 9 10 10 8 12 11 10 11 11 11 10 10 11 11 9 9 10 16 16 11 10 9 8 8 8 8 9 10 10 8 8 8 8 8 nan
nan 11 9 8 9 8 8 10 11 10 7 12 15 12 13 11 11 6 11 10 11 11 12 13 10 9 12 17 15 11 10 9 9 8 9 10 11 10 10 9 8 8 nan
nan 10 9 8 10 8 6 8 11 13 7 9 15 12 11 11 6 6 8 8 6 10 8 8 7 8 11 10 10 16 16 13 11 10 10 10 10 9 10 10 10 9 nan
nan 8 9 9 9 9 7 7 8 11 11 7 9 13 10 5 7 10 4 4 6 7 6 6 8 8 7 10 10 13 16 14 12 11 10 9 8 9 10 10 11 10 nan
nan 8 8 9 9 8 7 9 9 9 10 10 7 8 9 8 9 8 4 4 7 5 9 10 6 8 10 9 9 10 16 12 10 12 15 15 13 10 10 10 10 10 nan
nan 8 8 8 9 9 7 8 8 11 11 10 7 8 10 12 8 6 4 7 5 10 6 7 13 9 7 9 8 5 1 8 11 14 14 14 16 16 14 10 10 10 nan
nan 6 9 9 8 9 9 9 8 8 10 10 9 8 8 9 9 10 9 4 8 7 11 10 9 10 8 9 4 2 -1 5 12 9 8 10 13 15 15 16 12 9 nan
nan 7 9 10 9 9 10 9 8 7 7 7 9 10 9 9 9 8 9 9 9 9 7 4 9 11 9 7 2 0 9 11 10 10 4 7 12 13 14 13 11 12 nan
nan 8 9 8 9 9 9 9 8 6 7 7 8 11 10 9 9 10 9 8 11 10 3 8 12 5 6 9 5 7 10 9 5 3 6 10 9 12 15 15 14 11 nan
nan 8 9 8 8 8 7 9 9 8 9 10 9 9 11 10 9 11 10 10 8 5 8 10 6 6 10 7 6 10 8 2 9 11 10 11 8 10 10 11 14 15 nan
nan 9 9 9 9 7 7 10 10 8 10 11 8 8 11 9 9 11 11 11 9 8 5 6 7 7 8 7 4 9 9 14 18 13 14 13 13 7 5 6 12 17 nan
nan 9 9 9 8 7 8 9 9 9 10 10 10 9 9 11 12 9 9 8 10 10 9 5 7 7 9 9 9 8 11 15 13 7 10 5 12 10 5 10 15 12 nan
nan 8 9 9 7 7 8 8 9 9 9 9 9 10 11 10 9 13 10 10 11 10 8 7 10 10 10 10 10 10 11 9 6 6 5 8 8 4 8 17 12 8 nan
nan 9 8 9 7 6 8 8 9 9 9 9 9 10 10 10 12 11 10 12 11 10 10 11 9 10 10 9 12 13 10 12 7 9 11 10 8 13 14 9 6 8 nan
nan 8 8 9 7 6 6 7 9 9 9 9 9 10 10 9 8 9 12 10 10 10 12 11 10 10 9 11 11 10 12 11 9 13 14 14 16 14 10 7 11 12 nan
nan 8 8 9 8 6 5 7 11 11 8 9 9 9 8 6 9 14 9 5 10 12 10 10 10 10 8 9 10 12 10 10 11 13 13 11 13 14 12 14 11 13 nan
nan 8 9 9 9 5 3 8 13 14 8 8 8 8 8 8 8 9 8 13 15 10 8 10 8 9 7 9 9 9 10 8 13 12 7 8 10 9 12 13 10 10 nan
nan 7 8 10 8 4 4 8 13 14 8 8 9 10 10 8 6 7 11 15 14 15 15 10 8 8 9 9 9 10 11 10 11 7 10 11 11 10 12 10 8 11 nan
nan 8 8 9 9 4 3 9 14 13 9 8 9 9 8 8 6 8 13 13 12 12 14 12 10 7 8 8 11 12 15 16 13 12 12 12 11 13 13 14 18 11 nan
nan 9 8 8 10 4 4 9 16 12 8 9 10 9 9 3 2 14 17 11 11 11 7 8 13 15 12 13 16 16 13 13 13 14 18 17 12 13 14 14 19 14 nan
nan nan nan nan nan nan nan nan nan nan nan nan nan nan nan nan nan nan nan nan nan nan nan nan nan nan nan nan nan nan nan nan nan nan nan nan nan nan nan nan nan nan nan
CAPE
263 206 161 90 41 14 45 107 156 179 159 113 66 37 42 86 45 0 0 0 0 0 0 14 482 1288 1646 1331 1024 706 522 387 272 186 83 26 0 0 0 0 0 0 0
0 0 274 314 242 195 234 225 236 199 174 189 159 158 117 95 86 47 25 26 0 0 0 0 48 560 1050 1452 1237 1020 699 495 374 283 147 57 0 0 0 0 0 0 0
0 0 0 0 0 4 59 143 226 169 180 171 181 163 174 181 166 156 134 105 61 0 0 0 0 66 264 660 901 1013 1170 890 551 443 300 140 62 16 0 0 0 0 0
0 0 0 0 0 0 0 0 2 47 203 231 198 148 90 122 117 120 152 174 172 142 29 0 0 0 0 125 392 700 906 1044 1022 755 518 289 168 94 51 4 0 0 0
0 0 0 0 0 0 0 0 0 1 1 9 3 17 178 233 179 141 201 211 185 112 120 26 0 0 0 0 50 228 495 639 722 975 948 613 355 229 132 63 36 2 0
0 0 0 0 0 0 0 0 0 0 9 0 0 0 37 73 184 172 190 140 139 129 106 117 135 81 0 0 0 38 212 428 540 573 627 843 850 511 283 154 78 41 11
0 0 0 0 0 0 0 0 0 0 0 0 0 0 0 0 126 1 0 0 28 53 106 105 99 82 70 0 0 0 74 312 452 495 413 369 460 652 593 325 179 91 48
0 0 0 0 0 0 0 0 0 0 0 3 7 4 0 0 0 0 0 0 0 0 0 0 0 0 1 15 32 0 38 108 232 305 289 227 243 266 285 372 334 203 106
0 0 0 0 0 0 0 0 0 0 0 0 7 7 2 1 0 0 0 0 0 0 0 0 0 0 0 0 0 0 0 0 0 6 52 62 68 97 140 201 236 284 235
0 0 0 0 0 0 0 0 0 0 0 0 0 6 5 8 9 0 0 0 0 0 0 0 0 0 0 0 12 6 0 0 0 0 0 0 0 0 20 79 135 159 208
0 0 0 0 0 0 2 4 4 4 8 15 7 2 4 1 8 1 0 0 0 0 0 0 0 0 0 0 0 0 0 0 0 0 0 0 1 3 0 0 22 74 127
0 0 0 0 0 0 1 4 9 13 10 12 7 4 4 3 4 17 15 8 3 0 0 0 0 0 0 0 0 0 0 0 0 0 0 0 0 0 2 1 0 0 23
0 0 0 0 0 1 4 5 5 4 2 2 2 1 3 4 8 6 13 6 15 9 0 0 0 0 0 6 8 0 0 0 0 0 0 0 0 0 0 1 1 1 0
0 0 0 0 0 3 3 5 1 1 2 3 2 6 6 6 10 6 13 20 12 7 9 7 3 1 0 0 5 8 5 5 1 0 0 0 0 0 0 0 0 0 0
0 0 0 0 0 1 1 0 0 1 3 4 7 8 9 9 8 6 14 22 26 16 9 9 9 8 16 14 9 16 14 3 0 0 0 0 0 0 0 0 0 0 0
0 0 0 1 3 3 3 1 1 2 4 5 5 7 10 4 10 9 33 29 31 30 25 17 17 22 27 21 11 24 18 14 13 0 0 0 0 0 0 0 0 0 0
0 0 0 0 1 2 0 0 1 1 3 7 3 5 8 7 13 18 32 23 33 38 32 19 30 35 32 29 22 18 18 19 30 3 0 0 0 0 0 0 0 0 0
0 0 0 0 2 0 0 2 2 4 6 5 9 8 7 8 12 11 21 21 31 36 37 28 30 36 29 30 37 32 15 4 25 1 4 0 0 0 0 0 0 0 0
0 0 0 0 1 0 1 0 1 2 3 4 5 7 9 11 11 22 22 27 33 27 31 35 28 41 42 41 39 22 23 21 8 6 1 5 0 0 0 0 0 0 0
0 0 0 0 1 1 0 0 1 4 3 2 7 8 5 11 14 17 20 25 24 26 27 27 25 23 28 20 30 40 35 38 52 18 14 6 2 6 1 0 0 0 0
0 0 0 0 0 0 0 4 2 2 2 2 4 3 6 6 5 13 28 26 27 19 24 26 24 24 22 23 24 25 25 27 28 40 58 31 29 36 38 0 0 0 0
0 0 0 0 1 0 4 3 4 1 1 1 2 1 3 2 8 9 10 8 13 24 27 30 25 21 18 27 23 20 15 13 11 23 47 37 35 18 36 15 0 0 0
0 0 0 0 0 0 4 5 1 0 1 1 2 4 2 2 10 15 9 4 5 5 6 31 27 20 15 16 14 12 7 9 9 11 22 12 17 9 25 9 2 0 0
0 0 0 0 0 0 4 3 0 0 0 0 1 4 5 6 7 18 14 10 11 11 13 23 27 23 19 14 14 15 14 5 5 1 16 7 18 7 18 0 0 0 0
0 0 0 0 0 1 2 5 0 0 0 0 0 2 5 7 4 8 8 9 8 8 8 8 7 2 0 1 6 10 6 8 5 5 27 4 0 0 0 0 1 0 0
0 0 0 0 0 0 0 2 3 0 0 0 0 0 1 4 4 6 8 8 20 18 15 17 19 20 16 20 4 18 10 4 5 3 17 7 2 1 0 5 0 0 0